User: anonymous   Login
Location: Unspecified
(0.0000°N, 0.0000°E)
Time: 19:18:34
(UTC+00:00)
Language:

NNS O-32 - Orbit

View from above orbital plane
View from above orbital plane
View from above satellite
View from above satellite

Ground track
Ground track

The orbit data is extracted from the following two-line orbital elements,

1 19071U 88033B   17141.91930899 +.00000077 +00000-0 +14108-3 0  9993
2 19071 090.3641 272.5844 0187433 222.4144 255.7997 13.27593239407896
Epoch (UTC): 21 May 2017 22:03:48
Eccentricity: 0.0187433
inclination: 90.3641°
perigee height: 1014 km
apogee height: 1297 km
right ascension of ascending node: 272.5844°
argument of perigee: 222.4144°
revolutions per day: 13.27593239
mean anomaly at epoch: 255.7997°
orbit number at epoch: 40789

The dashed part of the orbit path shows where the satellite is in the earth's shadow,  

DLR